Tracking 30995 objects as of 5-Jul-2025
HD Live streaming from Space Station
objects crossing your sky now

COSMOS 970 DEB

Track COSMOS 970 DEB now!
10-day predictions


NORAD ID: 10886
Int'l Code: 1977-121AH
Perigee: 907.0 km
Apogee: 1,080.7 km
Inclination: 65.8 °
Period: 104.8 minutes
Semi major axis: 7364 km
RCS: 0.0098 m2 (small)
Launch date: December 21, 1977
Source: Commonwealth of Independent States (former USSR) (CIS)
Launch site: TYURATAM MISSILE AND SPACE COMPLEX (TTMTR)

Note: This is SATELLITE DEBRIS
Your satellite tracking list
Your tracking list is empty




NASA's NSSDC Master Catalog

Two Line Element Set (TLE):
1 10886U 77121AH  25185.95318491  .00000253  00000-0  34032-3 0  9997
2 10886  65.8437 116.9022 0117910 293.6208 134.6762 13.73597130372211
Source of the keplerian elements: AFSPC